Погода в Рыбинске

Погода в Рыбинске : погода сейчас, прогноз погоды и архив. Всё, что Вы хотите узнать о погоде в Рыбинске!

Хотите узнать прогноз погоды в Рыбинске? Тогда Вам сюда: Погода в Рыбинске

Поиск расширенной информации на нашем сайте:

Полезная информация:

Другие новости

Новости СМИ2

Главная страница сайта

Новости сайта

03.07.2017

Напоминаем, что на нашем специализированном сайте Метеоцентр.Азия вы можете получить высокодетализированные автоматические прогнозы погоды по пунктам России, СНГ и мира в авиационном формате (включающие направление и скорость ветра, видимость, явления погоды, количество и форму облачности, нижнюю и верхнюю границу облачности).

Рекомендуем:

Погода в Рыбинске - сегодня

Время (UTC), дата Ветер
(°,м/с) 
Видим.   Явления Облачность Т
(°С)
Тd
(°С)
f(%) Тe
(°С)
Pmin
(гПа)
dP
(гПа)
Po
(мм)
O2
(г/м3)
Тmin Tmax R s Состояние
почвы
09 15.09.19 270 (З) 10 км    8/8 300 м 
[Cu med, cong]
+11.7 +4.2 60 +12  1011.4  -0.8  749  289           
12 15.09.19 230 (ЮЗ) 2{10}  10 км    9/9 300 м 
[Cu med, cong]
+11.8 +3 55 +12  1010  -1.4  748  288           
15 15.09.19 180 (Ю) 10 км    10/10 2000 м 
[Ns]
+9.5 +4.3 70 +11  1007  -3.1  746  290    +12.6       
18 15.09.19 160 (Ю) 4000 м  слаб. ливневой дождь  10/10 300 м кучево-дожд. 
[Cb cap]
+7.7 +6 89 +8  1003.7  -4  743  290           
21 15.09.19 180 (Ю) 4000 м  слаб. ливневой дождь  10/10 300 м кучево-дожд. 
[Cb cap]
+8 +6.6 91 +8  997.6  -5.3  739  288           
00 16.09.19 250 (З) 10 км  {ливн. осадки}  10/10 300 м 
[Sc diur, vesp]
+8.4 +7 91 +9  994.1  -3.5  736  287           
03 16.09.19 240 (ЮЗ) 10 км    6/6 2000 м средняя 
[As trans]
+8.9 +7.3 90 +9  992.7  -1.3  735  286  +7.6      мокрая 
06 16.09.19 260 (З) 10 км  в посл. час ливневой дождь  8/8 300 м 
[Sc]
+10.6 +8.2 85 +11  991.9  -0.7  735  283           
09 16.09.19 260 (З) 4000 м  слаб. ливневой дождь  10/10 300 м кучево-дожд. 
[Cb cap]
+12.1 +7.2 72 +12  991.2  -0.7  734  282           
12 16.09.19 260 (З) 3{10}  10 км  {ливн. осадки}  8/8 600 м 
[Cu med, cong]
+13.6 +7.8 68 +14  991  -0.1  734  280           
15 16.09.19 260 (З) 2{10}  10 км    8/8 300 м 
[Cu med, cong]
+12 +7.1 72 +12  991.2  0.2  734  282    +13.6     
18 16.09.19 240 (ЮЗ) 10 км  {ливн. осадки}  4/0 средняя 
[As trans]
+9.4 +5.9 79 +10  991.2  0.1  734  285           
21 16.09.19 250 (З) 10 км    6/0 средняя 
[Ac trans]
+8.8 +6.3 84 +10  990.1  -1.1  733  285           
00 17.09.19 260 (З) 10 км  в посл. час ливневой дождь  9/9 300 м кучево-дожд. 
[Cb calv]
+8.8 +7.1 89 +8  989.7  -0.3  733  285           
03 17.09.19 270 (З) 3{10}  10 км    10/10 300 м 
[Cu med, cong]
+8.8 +5.7 81 +8  990.1  0.4  733  285  +8.7      мокрая 
06 17.09.19 270 (З) 10 км    10/10 300 м 
[Sc]
+9.1 +5.3 77 +9  991.2  1.1  734  285  +8.5         
09 17.09.19 290 (З) 2{10}  10 км    8/8 300 м 
[Cu med, cong]
+11.8 +4.3 60 +12  991.8  0.7  735  283           
12 17.09.19 280 (З) 2{10}  10 км  {ливн. осадки}  10/10 300 м 
[Cu med, cong]
+10.9 +5 67 +11  993.1  1.3  736  284           
15 17.09.19 260 (З) 10 км  в посл. час ливневой дождь  10/10 300 м 
[Cu med, cong]
+9.4 +5.6 77 +9  993.9  0.7  736  286    +12.2  0.0     
18 17.09.19 260 (З) 4000 м  слаб. ливневой дождь  10/10 300 м кучево-дожд. 
[Cb cap]
+8.5 +5.8 83 +8  994.5  0.5  736  287           
21 17.09.19 260 (З) 10 км  {ливн. осадки}  8/0 верхняя 
[Cs]
+7.6 +5.7 88 +8  994.6  0.1  737  288           
00 18.09.19 260 (З) 10 км  {ливн. осадки}  10/0 средняя 
[As op]
+7.5 +6.1 91 +8  995.1  0.4  737  288           
03 18.09.19 250 (З) 10 км    10/10 2000 м 
[Ac und]
+6.8 +5.3 90 +8  995.5  0.5  737  289  +6.8      мокрая 
06 18.09.19 260 (З) 10 км    10/10 300 м 
[Sc]
+8.1 +5.9 86 +8  995.9  0.5  738  288  +6.7         
09 18.09.19 270 (З) 10 км  {ливн. осадки}  10/10 300 м 
[Sc]
+10.2 +5.4 72 +10  996.7  0.8  738  286           
Время (UTC), дата Ветер
(°,м/с) 
Видим.   Явления Облачность Т
(°С)
Тd
(°С)
f(%) Тe
(°С)
Pmin
(гПа)
dP
(гПа)
Po
(мм)
O2
(г/м3)
Тmin Tmax R s Состояние
почвы

Для получения пояснительной информации подведите курсор к названию столбца.

ПОГОДА в Рыбинске - архив

Всё, что Вы хотите узнать о погоде в Рыбинске - удобно и подробно!

Выберите нужную дату (начиная с 1 января 2018* года) и нажмите кнопку "Найти".
Будут отображены архивные сводки погоды по пункту Рыбинск, начиная с указанной даты.


Отображать данные в формате CSV (для использования в таблицах Excel)


Внимание! Наш архив погоды предназначен исключительно для личного некоммерческого использования в познавательных целях. Если Вам необходимы официальные справки о состоянии погоды (для производственных, юридических, коммерческих и т.п. целей), обращайтесь в органы Росгидромета.

*Примечание: данная дата относится к архиву по метеостанциям СССР (Россия, СНГ, Балтия).
Архив по метеостанциям Зарубежной Европы и Азии (кроме Китая) хранится 10 дней, по другим регионам земного шара (Китай, Африка, Америка, Австралия, Океания) - 1 день.

Рыбинск - район местоположения метеостанции


Название, широта, долгота, высота метеостанции:
Рыбинск 58.1°ш. 38.7°д. 105 м над ур. моря [Российская Федерация]

Дополнительная информация

В oтличие oт бoльшинства пoгoдных сайтoв мы публикуем пoдрoбную метеoинфoрмацию в детальнoм прoфессиoнальнoм фoрмате.

Характеристики температуры и влажнoсти вoздуха измеряются на высoте 2 м в тени вдали oт зданий и деревьев.
Скoрoсть ветра измеряется на высoте 10 м (на урoвне рoста челoвека скoрoсть ветра ниже в 1.5-2 раза). Если метеoстанция нахoдится в гoрoде или в лесу, тo скoрoсть ветра занижена на 2-4 м/с пo сравнению с oткрытым местoм. Скoрoсть ветра над акватoриями крупных рек и oзёр, а также на вершинах хoлмoв на 2-5 м/с выше, чем в oбычных услoвиях.
Атмoсфернoе давление в разных тoчках местнoсти мoжет значительнo oтличаться oт давления на метеoстанции, в зависимoсти oт услoвий рельефа (при пoдъёме на 10 м давление пoнижается примернo на 1 мм рт.ст.).